Theta_e
335 335 335 334 334 334 335 334 334 334 334 334 333 333 333 332 332 332 332 333 333 332 332 331 331 331 331 331 330 330 330 330 329 329 329 329 329 329 329 330 331 331 330 329 330 330 329 329 329 329 329 329 330 330 330 330 330 330 330 330 330 330 329
333 334 334 334 334 334 334 334 333 333 332 332 332 333 333 332 331 332 332 333 333 332 332 331 331 330 331 330 330 330 330 330 330 330 330 330 330 330 329 329 330 330 330 329 330 331 331 330 329 329 329 329 329 329 329 329 330 330 330 330 331 330 329
332 332 332 332 332 332 332 332 332 331 331 331 332 332 332 331 331 331 331 332 332 332 331 331 330 330 330 330 330 330 330 330 330 330 330 330 330 330 329 329 329 329 329 328 329 330 331 331 330 330 330 329 329 328 328 328 329 330 330 330 330 330 330
332 332 332 331 331 331 331 330 330 330 329 330 331 331 331 330 329 330 330 331 331 331 331 330 330 330 330 330 330 330 330 330 330 330 330 330 329 329 330 330 329 329 329 328 328 328 330 330 330 330 330 329 329 329 329 328 329 329 329 330 330 330 330
330 331 332 331 330 330 330 330 329 329 328 329 330 330 329 329 329 329 330 330 330 330 330 330 330 329 329 329 330 330 330 330 329 329 330 330 330 330 330 330 330 329 329 329 328 328 328 329 330 330 330 330 330 329 329 329 329 329 329 329 329 330 330
328 329 329 329 329 329 328 329 328 328 327 326 327 327 327 327 328 328 328 329 330 330 330 329 329 329 329 329 329 329 330 330 329 330 329 330 330 330 330 330 330 330 329 329 329 328 328 329 330 330 330 330 329 329 329 329 329 329 328 329 329 329 329
327 327 327 327 327 326 326 326 326 326 325 325 325 326 326 326 326 326 326 327 328 329 329 329 328 328 328 329 329 329 329 329 329 329 329 329 329 330 330 330 330 330 329 329 329 329 328 329 329 329 329 329 329 330 330 329 329 329 329 328 328 329 329
324 324 324 324 323 323 323 323 323 323 323 323 324 325 325 324 324 324 324 324 326 327 328 328 328 328 329 329 329 328 328 328 328 328 329 328 328 328 329 329 329 329 329 329 329 330 329 329 329 328 329 330 330 330 330 330 329 328 328 328 328 328 329
320 320 320 320 320 320 320 320 321 321 321 321 322 323 324 324 323 323 323 322 323 325 326 327 328 328 328 328 328 328 327 327 328 328 329 328 328 328 328 329 329 329 329 329 329 330 330 330 329 329 329 330 330 330 330 329 329 328 327 327 328 328 328
317 317 318 318 318 319 319 319 319 320 320 319 320 321 322 322 322 322 322 322 323 324 325 326 327 326 326 326 327 327 327 327 328 328 328 328 328 328 328 329 329 330 329 329 329 329 330 330 330 330 330 330 330 330 330 329 329 328 327 327 327 327 327
316 316 317 317 317 317 317 317 318 318 318 319 319 319 320 320 320 321 321 321 322 322 324 325 325 325 325 325 326 326 326 326 327 327 327 328 328 328 328 328 329 329 329 329 328 328 329 329 330 330 330 330 330 330 330 330 329 328 328 328 326 326 326
316 316 316 316 316 316 316 316 316 317 317 317 318 319 319 320 320 320 320 320 320 321 322 322 323 324 324 325 326 326 326 326 326 326 326 326 327 327 327 328 328 328 328 328 328 328 328 329 329 329 330 330 330 330 330 330 330 329 328 328 327 326 326
315 315 315 315 315 316 316 316 316 317 317 317 317 318 318 319 319 320 319 318 318 319 319 320 321 321 322 323 325 326 327 326 326 325 325 325 325 325 326 327 328 328 327 327 327 328 328 328 329 329 329 329 330 330 330 330 330 329 328 328 328 327 327
314 314 314 314 315 315 316 316 316 316 316 316 316 317 317 318 318 319 318 318 318 318 318 319 319 319 319 320 322 324 325 326 325 325 324 324 324 324 325 325 326 326 327 327 327 327 327 327 328 328 328 328 329 330 330 329 329 329 328 328 327 326 326
313 312 313 314 314 315 315 315 315 315 315 315 315 315 316 316 317 317 317 317 318 318 318 317 318 318 318 318 319 320 321 322 323 323 323 324 324 324 323 323 324 324 325 326 326 327 327 328 328 328 328 328 329 329 329 330 330 329 329 328 327 326 326
311 311 312 313 314 314 315 315 315 315 314 314 314 314 314 315 315 316 316 316 317 317 317 317 316 317 317 317 317 317 318 318 319 320 321 321 322 322 322 323 324 325 325 325 325 326 326 327 328 328 328 328 328 328 328 329 329 329 329 329 328 327 326
310 310 311 311 312 313 313 314 314 314 314 314 314 314 314 314 314 314 315 315 315 315 315 315 315 315 316 316 316 316 316 316 316 317 318 318 319 320 321 322 323 324 325 325 325 325 325 326 327 328 328 328 328 329 328 329 329 329 329 329 329 328 327
309 309 309 309 310 311 312 312 313 313 313 313 313 313 313 313 313 313 313 314 314 314 314 313 314 314 314 314 315 315 315 315 315 315 316 316 317 318 319 320 321 322 324 325 325 325 325 326 326 326 327 328 328 329 329 329 329 329 329 329 329 329 329
307 307 308 308 308 309 310 310 310 311 311 311 312 312 312 312 312 312 312 312 312 312 312 312 312 312 313 313 313 314 314 314 314 315 315 315 316 316 317 318 319 320 321 323 323 324 324 325 326 326 326 328 328 329 329 329 328 328 329 329 329 329 329
306 306 306 307 307 307 308 308 309 309 309 310 310 310 310 310 310 310 310 310 310 310 310 310 310 311 311 311 312 313 313 313 314 314 315 315 316 316 317 317 317 318 319 320 322 323 323 324 325 326 326 326 327 328 328 328 328 328 328 328 328 329 329
305 305 305 306 306 306 306 306 307 307 308 308 308 308 308 308 309 309 309 309 308 309 309 309 309 309 310 310 310 311 312 313 313 313 314 315 316 316 317 317 317 318 318 318 319 320 322 324 325 325 326 326 326 327 328 328 328 328 328 328 328 328 329
304 304 304 304 305 305 304 304 305 306 306 307 306 306 306 306 307 307 307 307 307 307 307 307 307 307 307 308 308 309 310 311 312 313 313 314 315 315 316 316 317 317 318 318 318 318 319 321 323 325 325 326 326 326 327 327 328 328 328 328 328 328 329
302 302 303 303 303 303 303 303 304 304 305 305 304 304 304 304 304 305 305 305 305 305 305 306 305 305 305 306 307 308 309 310 311 312 313 313 314 314 314 315 316 316 317 318 318 318 318 319 320 323 324 325 326 326 327 327 327 327 327 328 328 328 328
302 302 302 302 302 302 303 303 303 303 303 303 303 302 303 303 303 303 303 303 303 304 304 304 304 304 304 305 306 307 308 309 310 311 312 312 312 313 313 313 314 315 316 317 317 318 318 318 319 320 322 325 326 326 326 327 327 327 328 328 328 328 328
301 301 301 302 302 302 302 301 301 301 301 301 301 301 301 301 301 301 301 301 301 301 302 302 302 303 303 304 305 306 307 308 309 310 311 311 311 311 312 313 314 315 316 317 317 318 318 319 319 319 321 323 324 325 325 326 327 327 328 328 328 328 328
299 300 300 300 300 300 300 300 300 300 300 300 300 300 300 300 300 300 299 300 299 299 300 300 300 301 302 303 304 305 306 307 308 309 309 310 310 310 310 311 313 315 316 317 318 317 318 319 319 319 320 322 323 324 325 326 326 327 327 327 327 327 327
298 299 299 299 299 299 298 298 298 297 297 298 298 298 299 299 299 299 299 299 299 298 298 298 299 299 300 301 302 303 304 306 307 308 308 308 309 309 309 309 311 313 316 317 317 316 317 319 319 319 319 320 321 322 324 325 325 326 327 327 327 327 327
298 298 298 298 297 297 296 296 295 295 295 295 295 296 296 297 298 298 298 298 298 298 298 298 298 298 298 299 300 302 303 305 306 307 307 308 308 307 308 309 310 311 314 316 316 315 316 318 320 320 319 319 320 321 323 325 325 326 326 327 327 327 327
298 298 298 297 297 296 296 296 295 295 295 295 294 294 294 295 296 296 297 298 298 297 297 297 297 297 298 298 299 300 302 303 304 305 306 307 307 306 306 307 308 310 312 315 315 316 317 318 320 320 320 320 320 320 322 324 325 325 326 327 327 327 327
297 298 298 298 297 297 297 296 296 295 295 295 295 294 294 294 294 295 296 296 297 297 297 296 296 296 297 298 298 299 300 301 303 304 305 305 305 305 305 306 307 308 310 312 314 316 317 318 320 321 321 320 320 320 320 322 324 325 326 326 327 327 327
298 297 297 297 298 297 297 297 297 296 296 295 295 294 294 294 294 294 295 295 296 296 296 296 296 296 297 297 298 298 299 299 301 302 303 304 304 304 304 305 305 307 309 310 312 314 316 317 319 321 321 320 320 319 319 321 323 324 325 325 326 326 326
298 297 297 297 297 297 297 297 297 296 296 295 294 294 293 293 294 294 294 295 296 296 296 296 296 296 296 297 297 297 298 299 299 300 301 302 303 303 303 304 304 305 307 308 310 312 315 316 318 319 319 319 320 320 320 321 322 323 324 325 326 326 326
297 297 297 296 296 296 296 296 296 296 296 295 294 293 293 293 293 294 294 295 295 296 296 296 295 296 296 296 296 297 297 298 299 299 300 300 301 302 302 303 303 304 306 307 308 310 314 316 316 317 318 319 319 320 321 321 322 323 324 325 324 325 325
296 296 296 296 296 296 296 296 296 296 295 295 294 293 293 293 293 293 293 294 294 295 295 295 295 295 295 296 296 296 296 297 298 298 299 299 299 300 301 301 302 303 304 306 307 309 312 314 316 316 316 318 320 321 322 322 323 323 324 324 324 324 324
296 296 296 296 296 296 296 296 296 296 295 295 294 294 293 293 293 293 293 293 294 294 295 295 295 295 295 295 295 296 296 296 297 297 298 299 299 299 300 301 301 302 303 305 307 308 310 313 315 315 315 316 318 319 320 320 321 322 323 323 323 323 323
297 296 296 296 296 296 296 296 296 296 295 295 294 294 293 293 293 293 293 293 294 294 294 295 295 295 295 295 295 295 295 296 296 297 297 298 299 299 300 300 301 302 303 304 306 307 309 311 313 313 314 314 315 317 317 317 317 318 319 319 319 319 320
297 297 296 296 296 296 296 296 296 296 295 295 294 294 293 293 293 293 293 293 293 294 294 295 295 295 295 295 295 295 295 295 296 296 297 297 298 299 300 300 300 301 302 303 305 306 307 309 310 312 312 313 313 314 315 315 316 316 316 316 316 316 317
Wind_Speed
13 14 15 15 16 16 16 16 16 16 16 15 15 15 15 15 15 15 16 16 16 17 17 17 17 17 16 16 16 17 18 20 22 24 25 25 26 28 28 27 27 27 28 28 27 25 22 21 21 20 20 22 25 28 29 29 29 28 27 26 25 23 22
14 14 15 14 15 16 16 16 17 17 16 16 16 16 17 18 18 18 18 18 18 18 18 18 17 17 17 17 17 18 19 20 21 22 24 25 26 27 27 27 28 27 28 28 28 29 29 28 27 26 24 22 24 27 28 29 31 30 29 28 27 25 23
14 14 15 16 16 17 17 17 18 17 17 16 16 16 18 19 20 20 19 19 18 18 18 17 17 17 17 17 17 18 20 21 22 22 23 25 26 26 27 27 28 28 28 27 26 27 29 30 29 30 27 24 25 26 26 26 29 30 31 30 29 28 26
15 15 17 18 19 18 18 18 18 18 17 16 15 16 18 19 20 20 20 19 18 18 18 18 18 18 19 19 18 19 19 20 21 22 22 24 25 26 26 27 28 28 28 28 27 26 27 28 29 30 29 26 27 27 26 25 24 26 29 30 30 29 28
17 18 18 20 21 20 20 19 19 20 20 18 17 19 19 19 19 19 19 19 19 19 19 19 19 20 20 20 20 20 21 21 22 23 23 24 25 25 25 26 27 27 27 28 27 26 26 26 27 28 28 27 28 29 28 26 24 24 25 27 28 29 29
20 21 22 22 24 24 23 23 23 23 24 23 21 20 20 19 19 19 18 18 19 19 19 19 20 20 21 20 20 21 22 23 23 24 25 25 25 24 24 25 26 26 26 27 26 25 25 25 26 27 27 27 29 30 29 27 26 24 24 25 26 27 28
21 21 22 23 23 24 24 24 23 23 23 22 20 19 20 19 18 19 19 18 17 18 19 19 20 20 19 19 19 19 20 22 23 24 24 24 24 23 22 23 24 24 24 25 25 25 25 25 26 27 28 27 27 28 28 27 26 26 26 26 25 24 26
15 16 17 18 19 20 20 20 21 21 20 20 19 20 21 21 20 19 20 19 18 18 18 19 19 19 18 17 17 17 18 19 21 23 23 22 22 21 22 22 21 21 22 22 23 24 25 26 27 27 26 27 27 27 29 28 27 28 28 27 26 24 24
7 9 11 13 15 16 18 19 19 19 20 20 20 21 21 22 21 21 21 20 19 19 19 19 19 19 19 18 17 16 16 16 18 20 21 21 21 20 20 20 20 21 21 21 22 24 26 26 27 26 26 27 28 28 29 28 29 29 28 28 28 27 26
4 6 8 10 12 13 15 16 16 17 18 19 20 21 22 22 22 22 21 20 20 20 19 18 19 19 19 19 19 17 16 15 16 17 18 19 20 20 20 20 20 21 21 21 21 23 25 27 28 29 29 29 28 29 29 28 30 31 30 29 29 28 27
3 5 7 9 11 12 13 15 15 16 17 18 19 20 21 22 22 22 21 21 21 21 19 17 17 19 19 20 20 19 19 19 18 18 17 18 19 20 21 21 21 21 20 20 20 21 23 25 27 28 29 29 29 30 31 31 32 33 31 31 30 29 28
4 6 8 10 12 13 13 14 14 15 16 17 18 19 20 21 22 22 22 22 22 22 20 19 18 19 19 20 20 20 21 22 22 22 20 20 21 21 20 21 22 22 21 19 19 20 20 22 25 26 27 28 29 30 31 33 35 34 33 32 31 30 29
6 8 10 10 10 10 10 9 9 10 11 12 13 15 17 18 19 21 21 21 22 22 21 21 21 21 21 21 21 21 20 21 22 24 24 24 24 23 23 22 22 23 22 21 21 20 20 21 23 25 27 29 30 30 31 33 36 36 34 33 31 31 31
9 11 12 10 8 5 4 5 6 7 8 9 9 10 12 13 14 16 18 19 21 22 23 23 23 24 24 23 23 23 24 24 25 26 27 26 25 25 26 26 26 24 23 23 24 23 23 23 23 24 26 28 30 31 32 33 36 36 35 33 31 32 33
10 11 12 10 6 4 4 5 6 7 9 9 10 11 11 12 12 13 15 16 18 20 21 21 21 21 22 22 22 23 25 27 28 28 28 28 27 27 27 28 28 27 25 26 27 26 26 25 25 25 25 27 29 31 31 32 34 36 36 34 32 32 34
7 8 8 7 5 5 6 7 7 8 9 10 11 11 12 12 12 13 13 14 15 17 17 17 17 17 18 18 19 19 20 22 25 27 29 30 30 30 28 28 28 27 26 27 29 29 28 27 27 27 27 28 28 30 30 31 33 35 36 36 33 32 33
6 7 8 9 8 8 9 9 9 9 10 11 12 12 12 12 13 13 13 14 14 16 16 17 17 16 16 17 17 17 18 18 20 21 24 25 28 29 30 30 29 27 27 28 29 29 29 29 28 28 29 29 29 30 30 30 32 33 35 36 35 33 33
7 8 9 9 10 10 10 10 10 10 11 11 12 12 12 12 13 13 14 14 15 16 17 18 18 18 18 18 18 19 19 19 20 20 21 22 23 25 28 30 31 30 29 29 30 30 30 30 30 30 30 30 30 30 31 31 31 32 34 36 36 35 34
8 10 10 10 10 10 11 11 12 12 12 11 11 11 12 12 13 13 14 14 14 15 17 18 18 19 19 19 20 21 21 21 22 22 23 23 23 23 25 27 29 31 32 33 33 33 31 31 31 31 32 32 31 29 30 32 32 32 34 36 36 37 36
9 11 11 10 10 11 11 12 12 13 13 12 11 11 12 13 13 14 14 15 15 16 18 19 19 20 20 20 21 22 23 23 23 23 24 25 25 25 25 25 26 28 31 34 35 35 33 32 32 33 32 33 32 30 29 31 32 32 34 36 37 38 37
9 10 11 12 12 12 12 12 13 12 13 13 13 14 14 15 15 15 16 16 17 18 19 20 22 23 23 23 23 23 23 24 25 25 25 24 24 25 25 25 24 24 25 28 32 35 36 33 32 32 32 31 31 31 30 30 32 33 34 36 38 39 38
9 11 13 14 14 14 14 13 13 12 12 13 14 15 15 15 16 16 17 17 18 19 20 21 23 25 26 26 26 25 24 24 25 27 27 26 25 25 25 25 24 23 22 23 26 30 35 36 34 32 31 31 31 30 30 31 32 34 35 37 38 39 39
10 11 13 14 14 15 14 14 13 12 13 13 14 15 15 16 17 17 18 18 19 19 20 21 22 23 24 25 26 26 25 24 24 25 27 27 27 26 26 26 26 24 23 23 23 25 29 34 37 36 34 32 32 32 32 32 33 33 35 37 38 38 40
12 13 14 14 15 15 15 15 15 15 15 15 16 16 17 17 18 18 19 19 19 20 20 21 21 21 22 23 24 25 26 25 24 23 24 26 28 28 27 26 26 25 24 24 24 25 25 28 33 37 37 35 34 33 33 33 34 32 33 35 36 37 39
17 17 17 17 17 18 18 18 19 19 19 19 19 19 19 19 19 19 19 20 21 21 21 21 21 22 22 21 22 23 24 25 24 23 23 24 26 28 29 28 27 26 25 24 24 25 26 28 30 34 37 38 36 34 34 33 33 32 32 34 36 38 39
20 21 21 21 21 21 21 22 22 22 21 21 20 19 19 19 19 20 20 21 22 22 23 23 23 23 23 22 22 21 22 23 23 22 22 23 24 26 29 30 28 27 25 24 24 26 27 28 30 32 36 39 38 36 34 34 33 32 32 34 37 40 39
22 23 23 23 23 23 23 24 23 23 22 20 20 19 19 19 19 20 20 21 22 23 24 25 26 25 25 24 23 22 21 21 21 21 21 22 24 25 27 30 30 29 27 26 28 31 32 30 31 33 35 38 39 37 35 34 34 32 33 34 37 40 40
23 23 23 23 23 24 25 25 25 24 23 22 21 20 19 19 19 19 19 20 22 23 25 26 27 28 27 26 25 23 21 20 20 21 20 21 23 25 27 29 30 31 29 29 31 35 37 35 32 33 35 37 38 38 36 34 34 33 33 35 37 40 41
23 23 23 23 23 24 25 25 26 26 25 25 24 23 22 21 20 20 20 20 21 23 25 27 29 30 30 29 28 26 24 22 21 21 21 21 22 25 28 30 31 31 30 29 31 35 37 36 34 32 33 35 36 38 38 35 32 32 33 34 37 39 40
23 22 22 22 23 23 23 24 25 26 27 28 27 27 25 23 22 21 21 21 22 24 26 27 29 30 31 31 31 29 28 25 23 22 22 22 23 25 28 30 31 32 31 30 32 34 36 35 32 29 29 32 33 35 37 36 31 30 31 32 35 37 37
22 22 22 22 22 22 22 23 25 27 29 30 30 29 27 25 23 22 22 23 23 24 25 27 29 30 31 32 33 32 32 30 27 26 25 25 25 26 28 30 31 32 32 33 33 34 36 36 31 25 23 26 30 32 33 33 30 28 28 30 32 34 35
22 22 22 22 21 21 22 23 25 27 29 31 32 31 30 28 27 26 25 24 23 23 25 27 30 31 32 32 33 34 33 32 31 30 29 29 28 28 29 31 32 32 32 34 34 33 34 36 32 24 19 19 25 29 29 28 28 27 27 27 29 31 32
22 22 22 21 21 21 22 23 25 27 30 31 32 31 31 31 31 30 28 26 26 25 25 27 30 32 33 33 35 35 34 33 32 32 31 31 31 31 32 33 34 34 33 34 36 33 30 31 30 23 16 14 19 24 25 26 26 24 24 24 25 27 28
23 23 22 22 21 22 23 24 26 28 30 32 32 32 31 31 32 32 31 30 29 28 27 28 30 32 34 35 36 36 36 34 34 33 31 32 32 33 35 36 36 36 35 34 35 32 26 24 25 23 16 11 14 19 22 23 23 22 23 23 23 24 24
23 23 23 23 23 23 25 25 27 28 30 32 33 32 32 33 34 35 34 33 31 30 30 29 30 32 34 36 36 37 36 35 35 34 32 32 31 30 32 34 34 34 33 32 31 29 23 19 21 22 19 14 12 12 13 16 18 21 22 23 22 23 24
22 22 23 23 24 24 25 25 26 28 30 32 33 34 34 35 36 37 38 36 34 33 32 31 31 32 34 36 37 37 36 35 35 34 33 31 29 27 27 29 30 29 29 28 26 25 21 17 17 19 19 16 13 10 7 7 9 13 15 16 16 19 21
19 20 22 23 24 24 24 24 26 28 30 32 33 34 35 36 37 39 40 39 37 35 34 33 32 33 34 35 36 37 36 35 35 33 32 30 28 26 24 25 26 26 26 25 23 21 19 17 17 17 16 15 12 8 7 8 6 4 3 2 2 5 7
Wind_Direction
264 265 267 272 278 282 284 286 288 291 291 291 293 295 294 294 294 295 296 297 297 296 295 295 297 299 298 297 297 296 290 282 277 276 277 277 275 274 277 278 278 275 268 263 263 266 268 269 269 268 264 258 256 255 255 254 253 252 252 250 249 249 250
262 264 267 272 276 280 284 286 287 290 292 293 295 296 294 294 295 296 297 297 296 295 294 294 296 298 297 295 294 294 293 289 285 282 279 277 276 276 278 278 277 276 275 272 269 267 265 265 265 265 264 261 259 258 257 256 254 253 252 251 250 250 249
259 263 265 268 272 277 282 285 288 291 293 294 295 295 295 295 296 297 297 295 295 296 297 296 295 294 292 291 290 289 289 289 288 287 285 283 280 278 275 274 273 273 274 275 273 269 266 264 264 264 264 263 263 264 262 260 257 255 254 253 250 249 249
253 261 265 269 273 278 282 285 287 288 290 292 294 294 294 295 298 300 299 296 294 293 294 294 294 292 290 290 292 293 291 289 288 287 285 285 283 280 277 274 273 273 273 273 274 272 267 266 266 266 265 263 263 266 266 265 262 259 257 255 253 251 249
251 255 261 267 271 274 278 282 284 285 285 283 283 285 286 290 295 298 300 299 296 294 293 293 294 293 293 294 295 295 294 292 289 286 283 281 281 280 280 279 277 277 274 272 273 272 267 266 266 268 270 266 264 266 268 264 260 259 258 257 256 254 251
254 256 259 264 267 269 272 276 281 284 285 285 285 286 287 289 293 294 297 299 298 296 294 294 293 294 295 295 294 293 294 293 291 288 285 282 280 280 280 280 279 278 275 273 271 268 266 264 262 265 270 269 268 271 271 265 261 260 260 260 259 256 253
260 263 265 266 267 269 270 274 278 281 284 288 289 288 288 289 292 295 296 296 297 295 293 292 291 292 294 295 295 294 295 295 294 293 290 285 282 281 281 281 280 279 277 274 270 265 263 260 257 260 266 267 268 270 269 266 264 261 261 262 261 258 254
261 264 268 270 271 272 272 272 272 274 276 278 280 283 284 285 286 290 292 292 293 293 293 291 289 288 290 294 298 297 296 296 296 295 292 286 282 282 281 280 281 281 280 276 271 268 265 260 258 260 262 263 262 263 265 266 264 262 262 262 260 258 254
256 259 262 265 268 271 273 274 274 275 274 271 271 273 277 282 284 285 290 295 295 292 292 293 293 290 289 291 294 296 295 296 298 297 294 289 284 282 280 279 281 282 283 281 275 271 268 264 261 260 259 258 258 258 261 262 262 262 262 260 257 255 253
235 246 254 259 265 270 275 279 281 281 280 277 273 271 273 277 280 283 288 293 293 291 291 295 298 297 293 292 294 296 296 293 293 294 294 292 288 283 280 278 278 280 282 282 278 271 267 263 260 259 258 257 256 256 256 256 259 261 261 259 257 256 255
244 254 262 267 271 275 279 282 284 284 284 284 281 278 276 276 277 280 282 284 286 289 289 292 296 297 298 297 296 297 296 294 291 290 289 290 288 285 282 279 278 279 279 278 277 274 270 266 262 259 258 256 254 254 254 254 257 261 261 259 257 257 257
266 268 270 273 278 283 285 285 287 288 287 285 283 280 278 277 276 277 277 278 280 283 285 288 289 290 293 296 296 295 293 292 291 290 288 287 286 285 284 283 282 281 279 277 274 274 273 271 268 264 261 259 257 255 255 255 256 258 260 258 257 257 258
289 285 282 286 293 295 294 294 299 305 304 299 294 290 287 285 281 279 279 279 280 282 284 287 287 285 284 286 289 291 291 290 290 290 290 287 285 285 284 283 283 282 282 281 277 273 272 270 270 268 264 262 259 258 257 255 253 256 259 259 259 258 258
304 303 304 311 316 311 315 329 331 332 333 326 319 315 310 306 299 294 291 290 291 292 291 291 291 290 288 285 282 282 285 286 288 289 290 289 286 284 282 279 278 279 282 283 279 274 272 270 269 269 267 264 261 260 260 258 255 256 258 257 255 255 255
312 315 318 321 323 324 337 346 344 341 341 337 333 332 328 325 321 315 310 306 305 305 306 307 307 306 305 301 295 288 285 283 284 284 286 286 285 284 283 281 280 279 279 280 277 273 271 271 271 271 268 265 262 260 261 262 260 259 258 256 252 251 252
336 342 347 348 348 348 347 346 346 346 345 341 339 339 337 335 333 329 327 325 321 321 324 326 328 326 322 318 314 309 302 295 290 286 284 284 283 283 283 284 284 283 282 280 278 275 272 272 273 272 269 265 263 261 261 263 263 261 260 259 254 250 250
16 18 18 14 8 0 353 349 347 347 345 344 345 347 345 343 340 338 339 340 338 337 338 339 338 336 332 329 325 322 319 315 309 303 297 292 287 283 281 280 281 282 282 281 280 279 276 273 272 271 270 268 267 265 264 264 264 262 261 260 258 254 251
22 23 21 15 10 4 360 356 354 352 350 351 353 353 352 350 349 349 349 349 348 346 344 343 342 340 336 332 329 326 323 321 318 315 312 307 299 291 284 280 278 277 277 277 277 278 278 276 273 271 269 269 268 269 269 268 265 262 260 261 260 257 253
16 18 17 12 10 8 6 3 1 1 0 359 357 356 354 353 353 355 355 354 351 347 344 342 341 340 337 332 329 327 325 323 321 318 316 314 310 303 293 285 279 274 271 270 271 273 275 276 275 272 269 267 265 267 269 269 268 264 260 260 261 259 256
17 13 13 17 18 15 13 10 8 9 7 4 1 358 356 355 355 355 354 352 350 348 345 342 339 338 338 336 332 327 324 323 322 321 320 317 315 311 304 296 289 281 273 269 266 267 269 272 274 274 272 268 265 264 265 266 266 263 259 258 260 259 257
26 22 26 34 35 30 26 21 17 16 13 10 9 7 3 1 358 355 353 352 351 349 347 343 341 338 337 336 335 331 326 322 321 322 322 320 319 317 312 305 298 292 285 277 269 264 261 262 267 271 273 272 268 263 262 262 262 261 259 258 258 259 257
39 37 38 40 40 38 37 34 30 26 22 19 16 13 9 5 1 357 356 354 352 350 347 346 347 344 340 337 335 333 330 326 323 323 323 324 323 321 320 315 308 301 296 289 280 270 262 257 258 262 266 269 269 265 262 262 262 261 258 257 257 257 254
48 45 44 43 41 39 38 39 37 33 29 25 20 15 10 7 4 2 1 358 355 352 350 349 349 347 343 339 335 333 332 329 326 324 325 326 326 326 326 323 318 311 303 296 290 281 269 259 254 253 256 259 263 264 262 261 262 261 258 256 256 255 251
61 58 55 52 49 45 43 43 42 39 35 30 26 22 17 13 11 9 5 2 359 356 354 351 349 345 343 340 336 334 333 332 330 328 327 326 327 329 329 326 323 319 313 307 300 292 281 267 256 250 250 251 253 256 257 258 260 259 256 256 257 255 250
69 66 64 61 59 56 53 51 48 44 40 36 33 29 26 22 19 15 11 8 5 3 360 356 351 348 345 342 339 337 336 334 334 335 334 332 332 333 332 329 326 323 320 317 312 305 293 279 265 253 248 248 249 250 250 251 253 254 252 253 256 255 253
71 69 68 66 64 61 58 55 51 47 44 40 36 33 30 27 23 20 17 14 12 10 6 2 358 354 350 346 343 340 337 336 336 337 339 339 339 338 337 333 329 325 324 325 325 322 309 292 277 263 251 246 247 248 247 246 247 249 251 254 256 255 255
71 69 69 67 65 63 60 56 52 47 43 38 35 31 29 26 24 21 19 16 13 11 8 4 1 357 354 351 347 342 339 338 337 337 340 343 345 346 343 339 335 331 329 329 330 330 326 312 291 274 261 251 247 246 247 246 244 244 247 251 255 256 256
70 70 70 69 68 65 61 57 52 46 42 37 33 29 25 21 19 17 15 13 11 9 7 4 1 358 355 353 351 347 342 339 338 338 340 344 349 351 349 346 343 339 335 329 327 329 329 322 305 284 270 259 250 247 246 246 244 243 244 246 250 254 255
71 72 71 69 67 64 60 55 50 46 42 39 35 31 26 21 16 13 9 8 9 9 7 5 3 360 356 354 352 350 347 343 340 340 342 345 350 354 354 353 350 346 340 330 327 330 331 324 311 295 278 265 256 249 247 247 245 244 245 245 246 249 252
70 70 68 66 64 61 57 51 47 44 40 36 34 31 28 24 19 14 10 8 10 10 9 8 7 3 360 357 355 352 351 349 345 344 345 348 351 354 356 356 353 351 347 337 331 335 337 331 319 304 286 269 258 250 247 248 248 247 247 248 247 247 250
68 67 65 64 62 58 54 48 44 41 36 33 32 30 29 28 25 21 17 14 14 14 13 13 11 8 6 3 1 358 355 353 352 349 348 349 351 353 355 356 355 354 352 346 338 337 341 341 333 318 297 274 259 252 249 249 251 252 252 252 251 250 250
67 66 64 63 61 56 51 47 43 39 35 32 31 30 30 29 27 25 23 21 18 17 18 17 15 13 12 9 7 5 1 358 357 355 351 349 350 352 353 354 356 355 353 350 345 340 341 347 345 334 314 285 263 255 253 253 256 261 262 261 259 257 255
67 64 62 60 58 54 51 47 42 39 35 32 30 31 31 30 28 27 26 24 22 20 20 21 19 17 16 14 12 10 8 5 3 0 357 353 351 351 352 353 355 355 353 350 348 343 341 348 351 343 325 294 270 261 258 259 261 265 268 269 268 264 259
64 62 61 59 57 54 50 46 42 38 35 32 31 31 31 30 28 27 26 24 24 23 22 21 21 19 18 17 15 13 12 10 7 4 1 358 354 352 352 353 354 354 351 348 346 344 343 350 356 352 342 317 285 270 265 266 268 268 270 273 274 271 265
62 61 60 57 54 51 48 44 40 37 35 32 31 30 29 27 26 26 26 24 23 23 24 22 21 20 18 17 17 15 14 13 10 6 3 360 356 354 356 356 355 353 350 347 346 345 347 355 3 2 357 348 328 304 288 284 282 278 274 273 273 271 265
61 59 56 53 50 47 45 43 40 37 35 33 31 30 28 27 26 26 25 24 23 23 24 24 22 20 18 17 16 15 15 15 13 9 6 3 358 357 1 3 1 357 352 349 350 352 355 4 14 12 6 360 355 356 358 344 321 300 283 271 263 257 249
59 56 53 50 46 44 43 42 40 38 36 33 31 29 28 27 27 26 25 24 23 23 23 23 22 20 18 16 16 15 14 15 15 12 10 8 3 1 3 8 9 6 2 359 359 359 3 18 29 27 21 14 9 17 47 62 56 20 328 282 251 248 238